| time (UTC) | temp F | wind direction | speed MPH | gust MPH | rain 1hr in | rain 24hr in | rain mn in | humidity % | barometer mb |
| 20260505223633 | 80 | 285 | 5.0 | 12.0 | 0.00 | 0.00 | 0.00 | 39 | 1013.1 |
| 20260505222635 | 80 | 19 | 6.0 | 14.0 | 0.00 | 0.00 | 0.00 | 39 | 1013.1 |
| 20260505221633 | 79 | 9 | 9.0 | 16.0 | 0.00 | 0.00 | 0.00 | 41 | 1013.2 |
| 20260505220653 | 81 | 42 | 5.0 | 10.0 | 0.00 | 0.00 | 0.00 | 40 | 1013.2 |
| 20260505215633 | 79 | 21 | 5.0 | 10.0 | 0.00 | 0.00 | 0.00 | 42 | 1013.2 |
| 20260505214633 | 79 | 25 | 7.0 | 13.0 | 0.00 | 0.00 | 0.00 | 40 | 1013.3 |
| 20260505213633 | 80 | 59 | 7.0 | 13.0 | 0.00 | 0.00 | 0.00 | 41 | 1013.3 |
| 20260505212633 | 79 | 155 | 4.0 | 9.0 | 0.00 | 0.00 | 0.00 | 42 | 1013.5 |
| 20260505211633 | 78 | 9 | 5.0 | 9.0 | 0.00 | 0.00 | 0.00 | 44 | 1013.5 |
| 20260505210633 | 78 | 353 | 7.0 | 11.0 | 0.00 | 0.00 | 0.00 | 43 | 1013.5 |
| 20260505205653 | 78 | 62 | 6.0 | 11.0 | 0.00 | 0.00 | 0.00 | 43 | 1013.6 |
| 20260505204633 | 76 | 97 | 5.0 | 12.0 | 0.00 | 0.00 | 0.00 | 45 | 1013.7 |
| 20260505203633 | 77 | 20 | 6.0 | 11.0 | 0.00 | 0.00 | 0.00 | 44 | 1013.7 |
| 20260505202635 | 77 | 22 | 7.0 | 12.0 | 0.00 | 0.00 | 0.00 | 43 | 1013.8 |
| 20260505201633 | 76 | 24 | 7.0 | 12.0 | 0.00 | 0.00 | 0.00 | 43 | 1013.9 |
| 20260505200653 | 76 | 29 | 6.0 | 10.0 | 0.00 | 0.00 | 0.00 | 45 | 1013.9 |
| 20260505195633 | 76 | 40 | 6.0 | 10.0 | 0.00 | 0.00 | 0.00 | 45 | 1014.0 |
| 20260505194633 | 76 | 28 | 4.0 | 8.0 | 0.00 | 0.00 | 0.00 | 47 | 1014.1 |
| 20260505193633 | 75 | 14 | 5.0 | 9.0 | 0.00 | 0.00 | 0.00 | 47 | 1014.1 |
| 20260505192633 | 75 | 25 | 5.0 | 12.0 | 0.00 | 0.00 | 0.00 | 47 | 1014.2 |
| 20260505191714 | 75 | 20 | 4.0 | 10.0 | 0.00 | 0.00 | 0.00 | 48 | 1014.3 |
| 20260505190634 | 73 | 43 | 5.0 | 10.0 | 0.00 | 0.00 | 0.00 | 49 | 1014.3 |
| 20260505185633 | 74 | 24 | 4.0 | 8.0 | 0.00 | 0.00 | 0.00 | 51 | 1014.4 |
| 20260505184634 | 74 | 314 | 2.0 | 3.0 | 0.00 | 0.00 | 0.00 | 51 | 1014.4 |
| 20260505183633 | 72 | 37 | 3.0 | 9.0 | 0.00 | 0.00 | 0.00 | 52 | 1014.4 |
| 20260505182634 | 71 | 32 | 2.0 | 7.0 | 0.00 | 0.00 | 0.00 | 54 | 1014.4 |
| 20260505181635 | 72 | 358 | 0.0 | 2.0 | 0.00 | 0.00 | 0.00 | 54 | 1014.4 |
| 20260505180633 | 71 | 285 | 3.0 | 8.0 | 0.00 | 0.00 | 0.00 | 54 | 1014.5 |
| 20260505175634 | 70 | 162 | 2.0 | 4.0 | 0.00 | 0.00 | 0.00 | 54 | 1014.5 |
| 20260505174633 | 69 | 333 | 0.0 | 2.0 | 0.00 | 0.00 | 0.00 | 56 | 1014.6 |
| 20260505173633 | 68 | 17 | 1.0 | 4.0 | 0.00 | 0.00 | 0.00 | 58 | 1014.6 |
| 20260505172634 | 68 | 26 | 2.0 | 6.0 | 0.00 | 0.00 | 0.00 | 58 | 1014.6 |
| 20260505171633 | 67 | 83 | 2.0 | 7.0 | 0.00 | 0.00 | 0.00 | 59 | 1014.6 |
| 20260505170714 | 67 | 301 | 1.0 | 4.0 | 0.00 | 0.00 | 0.00 | 57 | 1014.6 |
| 20260505165634 | 65 | 138 | 2.0 | 4.0 | 0.00 | 0.00 | 0.00 | 59 | 1014.7 |
| 20260505164713 | 65 | 168 | 3.0 | 5.0 | 0.00 | 0.00 | 0.00 | 61 | 1014.7 |
| 20260505163634 | 63 | 215 | 1.0 | 4.0 | 0.00 | 0.00 | 0.00 | 65 | 1014.7 |
| 20260505162633 | 61 | 222 | 2.0 | 3.0 | 0.00 | 0.00 | 0.00 | 68 | 1014.8 |
| 20260505161654 | 60 | 187 | 3.0 | 5.0 | 0.00 | 0.00 | 0.00 | 73 | 1014.8 |
| 20260505160634 | 59 | 156 | 2.0 | 3.0 | 0.00 | 0.00 | 0.00 | 73 | 1014.9 |
| 20260505152634 | 54 | 174 | 2.0 | 4.0 | 0.00 | 0.00 | 0.00 | 79 | 1015.0 |
| 20260505151634 | 53 | 193 | 2.0 | 4.0 | 0.00 | 0.00 | 0.00 | 83 | 1014.9 |
| 20260505150654 | 52 | 178 | 2.0 | 4.0 | 0.00 | 0.00 | 0.00 | 82 | 1014.9 |
| 20260505140634 | 43 | 0.0 | 0.0 | 0.00 | 0.00 | 0.00 | 99 | 1014.6 | |
| 20260505124634 | 42 | 0.0 | 0.0 | 0.00 | 0.00 | 0.00 | 97 | 1013.8 | |
| 20260505123654 | 42 | 0.0 | 0.0 | 0.00 | 0.00 | 0.00 | 96 | 1013.8 | |
| 20260505122655 | 42 | 0.0 | 0.0 | 0.00 | 0.00 | 0.00 | 95 | 1013.8 | |
| 20260505121634 | 42 | 0.0 | 0.0 | 0.00 | 0.00 | 0.00 | 93 | 1013.8 | |
| 20260505120634 | 43 | 0.0 | 0.0 | 0.00 | 0.00 | 0.00 | 94 | 1013.7 | |
| 20260505115634 | 44 | 189 | 0.0 | 1.0 | 0.00 | 0.00 | 0.00 | 93 | 1013.6 |
| 20260505114634 | 44 | 0.0 | 0.0 | 0.00 | 0.00 | 0.00 | 95 | 1013.5 | |
| 20260505113634 | 44 | 0.0 | 0.0 | 0.00 | 0.00 | 0.00 | 91 | 1013.5 | |
| 20260505112634 | 44 | 0.0 | 0.0 | 0.00 | 0.00 | 0.00 | 91 | 1013.6 | |
| 20260505111634 | 45 | 197 | 0.0 | 2.0 | 0.00 | 0.00 | 0.00 | 89 | 1013.5 |
| 20260505110634 | 45 | 0.0 | 0.0 | 0.00 | 0.00 | 0.00 | 90 | 1013.4 | |
| 20260505101634 | 45 | 0.0 | 0.0 | 0.00 | 0.00 | 0.00 | 86 | 1013.0 | |
| 20260505100634 | 46 | 0.0 | 0.0 | 0.00 | 0.00 | 0.00 | 84 | 1013.0 | |
| 20260505095634 | 46 | 0.0 | 0.0 | 0.00 | 0.00 | 0.00 | 82 | 1013.0 | |
| 20260505094634 | 47 | 0.0 | 0.0 | 0.00 | 0.00 | 0.00 | 80 | 1013.1 | |
| 20260505093634 | 47 | 0.0 | 0.0 | 0.00 | 0.00 | 0.00 | 78 | 1013.1 | |
| 20260505092654 | 48 | 0.0 | 0.0 | 0.00 | 0.00 | 0.00 | 77 | 1013.1 | |
| 20260505091634 | 48 | 0.0 | 0.0 | 0.00 | 0.00 | 0.00 | 76 | 1013.0 | |
| 20260505090714 | 49 | 0.0 | 0.0 | 0.00 | 0.00 | 0.00 | 73 | 1012.9 | |
| 20260505085634 | 50 | 0.0 | 0.0 | 0.00 | 0.00 | 0.00 | 72 | 1012.9 | |
| 20260505084634 | 51 | 0.0 | 0.0 | 0.00 | 0.00 | 0.00 | 69 | 1012.8 | |
| 20260505083634 | 52 | 0.0 | 1.0 | 0.00 | 0.00 | 0.00 | 65 | 1012.7 | |
| 20260505082634 | 52 | 0.0 | 1.0 | 0.00 | 0.00 | 0.00 | 67 | 1012.7 | |
| 20260505081634 | 54 | 0.0 | 0.0 | 0.00 | 0.00 | 0.00 | 61 | 1012.7 | |
| 20260505080634 | 56 | 266 | 0.0 | 2.0 | 0.00 | 0.00 | 0.00 | 57 | 1012.6 |
| 20260505075655 | 57 | 0.0 | 0.0 | 0.00 | 0.00 | 0.00 | 56 | 1012.6 | |
| 20260505074635 | 59 | 353 | 0.0 | 3.0 | 0.00 | 0.00 | 0.00 | 55 | 1012.5 |
| 20260505073654 | 59 | 322 | 3.0 | 5.0 | 0.00 | 0.00 | 0.00 | 54 | 1012.4 |
| 20260505072634 | 55 | 230 | 1.0 | 2.0 | 0.00 | 0.00 | 0.00 | 58 | 1012.6 |
| 20260505071635 | 55 | 0.0 | 0.0 | 0.00 | 0.00 | 0.00 | 60 | 1012.5 | |
| 20260505070635 | 56 | 0.0 | 1.0 | 0.00 | 0.00 | 0.00 | 54 | 1012.3 | |
| 20260505065634 | 56 | 0.0 | 0.0 | 0.00 | 0.00 | 0.00 | 53 | 1012.2 | |
| 20260505064714 | 56 | 0.0 | 0.0 | 0.00 | 0.00 | 0.00 | 56 | 1012.1 | |
| 20260505063654 | 57 | 0.0 | 0.0 | 0.00 | 0.00 | 0.00 | 56 | 1012.0 | |
| 20260505062634 | 61 | 256 | 1.0 | 2.0 | 0.00 | 0.00 | 0.00 | 47 | 1012.0 |
| 20260505061634 | 61 | 359 | 1.0 | 3.0 | 0.00 | 0.00 | 0.00 | 46 | 1012.0 |
| 20260505060634 | 62 | 29 | 2.0 | 5.0 | 0.00 | 0.00 | 0.00 | 45 | 1011.8 |
| 20260505055634 | 62 | 21 | 3.0 | 6.0 | 0.00 | 0.00 | 0.00 | 45 | 1011.8 |
| 20260505054635 | 62 | 13 | 2.0 | 6.0 | 0.00 | 0.00 | 0.00 | 45 | 1011.8 |
| 20260505053654 | 63 | 18 | 2.0 | 6.0 | 0.00 | 0.00 | 0.00 | 44 | 1011.8 |
| 20260505052634 | 64 | 19 | 1.0 | 4.0 | 0.00 | 0.00 | 0.00 | 43 | 1011.8 |
| 20260505051634 | 64 | 28 | 3.0 | 5.0 | 0.00 | 0.00 | 0.00 | 43 | 1011.7 |
| 20260505050654 | 64 | 21 | 3.0 | 7.0 | 0.00 | 0.00 | 0.00 | 43 | 1011.6 |
| 20260505041634 | 65 | 11 | 1.0 | 3.0 | 0.00 | 0.00 | 0.00 | 43 | 1011.3 |
| 20260505040654 | 65 | 19 | 2.0 | 3.0 | 0.00 | 0.00 | 0.00 | 42 | 1011.2 |
| 20260505035635 | 66 | 25 | 1.0 | 5.0 | 0.00 | 0.00 | 0.00 | 42 | 1010.9 |
| 20260505034634 | 67 | 5 | 4.0 | 7.0 | 0.00 | 0.00 | 0.00 | 41 | 1010.7 |
| 20260505033635 | 68 | 43 | 3.0 | 8.0 | 0.00 | 0.00 | 0.00 | 40 | 1010.5 |
| 20260505032654 | 69 | 35 | 4.0 | 8.0 | 0.00 | 0.00 | 0.00 | 38 | 1010.4 |
| 20260505031635 | 70 | 24 | 6.0 | 10.0 | 0.00 | 0.00 | 0.00 | 37 | 1010.2 |
| 20260505030635 | 71 | 26 | 8.0 | 13.0 | 0.00 | 0.00 | 0.00 | 35 | 1010.0 |
| 20260505025635 | 72 | 20 | 8.0 | 13.0 | 0.00 | 0.00 | 0.00 | 34 | 1009.8 |
| 20260505024635 | 73 | 68 | 7.0 | 14.0 | 0.00 | 0.00 | 0.00 | 34 | 1009.7 |
| 20260505023634 | 73 | 346 | 9.0 | 16.0 | 0.00 | 0.00 | 0.00 | 33 | 1009.6 |
| 20260505022635 | 74 | 23 | 7.0 | 12.0 | 0.00 | 0.00 | 0.00 | 33 | 1009.5 |
| 20260505021634 | 75 | 22 | 9.0 | 16.0 | 0.00 | 0.00 | 0.00 | 32 | 1009.5 |
| 20260505020634 | 75 | 33 | 8.0 | 14.0 | 0.00 | 0.00 | 0.00 | 32 | 1009.5 |
| 20260505015635 | 76 | 6 | 7.0 | 15.0 | 0.00 | 0.00 | 0.00 | 32 | 1009.4 |
| 20260505014655 | 76 | 47 | 7.0 | 12.0 | 0.00 | 0.00 | 0.00 | 33 | 1009.5 |
| 20260505013635 | 77 | 23 | 7.0 | 12.0 | 0.00 | 0.00 | 0.00 | 33 | 1009.5 |
| 20260505012635 | 78 | 356 | 5.0 | 10.0 | 0.00 | 0.00 | 0.00 | 33 | 1009.5 |
| 20260505011655 | 78 | 66 | 7.0 | 17.0 | 0.00 | 0.00 | 0.00 | 34 | 1009.5 |
| 20260505010655 | 79 | 354 | 8.0 | 17.0 | 0.00 | 0.00 | 0.00 | 33 | 1009.4 |
| 20260505005635 | 79 | 272 | 8.0 | 15.0 | 0.00 | 0.00 | 0.00 | 33 | 1009.4 |
| 20260505004635 | 80 | 52 | 8.0 | 15.0 | 0.00 | 0.00 | 0.00 | 35 | 1009.4 |
| 20260505003635 | 79 | 3 | 8.0 | 15.0 | 0.00 | 0.00 | 0.00 | 34 | 1009.5 |
| 20260505002635 | 80 | 225 | 8.0 | 13.0 | 0.00 | 0.00 | 0.00 | 34 | 1009.4 |
| 20260505001635 | 80 | 343 | 9.0 | 15.0 | 0.00 | 0.00 | 0.00 | 37 | 1009.5 |
| 20260505000635 | 81 | 18 | 5.0 | 10.0 | 0.00 | 0.00 | 0.00 | 34 | 1009.4 |
| 20260504235637 | 82 | 31 | 6.0 | 13.0 | 0.00 | 0.00 | 0.00 | 35 | 1009.4 |
| 20260504234655 | 80 | 2 | 7.0 | 11.0 | 0.00 | 0.00 | 0.00 | 36 | 1009.4 |
| 20260504233635 | 82 | 336 | 9.0 | 17.0 | 0.00 | 0.00 | 0.00 | 34 | 1009.4 |
| 20260504232635 | 81 | 351 | 7.0 | 13.0 | 0.00 | 0.00 | 0.00 | 34 | 1009.4 |
| 20260504231635 | 81 | 37 | 6.0 | 14.0 | 0.00 | 0.00 | 0.00 | 34 | 1009.4 |
| 20260504230655 | 81 | 17 | 7.0 | 15.0 | 0.00 | 0.00 | 0.00 | 34 | 1009.6 |
| 20260504225655 | 82 | 2 | 10.0 | 17.0 | 0.00 | 0.00 | 0.00 | 33 | 1009.8 |
| 20260504224637 | 81 | 349 | 6.0 | 11.0 | 0.00 | 0.00 | 0.00 | 33 | 1009.8 |